Regional Weather Roundup
Issued by NWS

Home | Current Version | Previous Version | Graphics & Text | Print | Product List | Glossary On
Versions: 1 2 3 4 5 6 7 8 9 10 11 12 13 14 15 16 17 18 19 20 21 22 23 24 25 26 27 28 29 30 31 32 33 34 35 36 37 38 39 40 41 42 43 44 45 46 47 48 49 50
000
ASUS43 KTOP 250608
RWRKS

WEATHER ROUNDUP FOR KANSAS
NATIONAL WEATHER SERVICE GOODLAND KS
100 AM CDT MON JUL 25 2016

NOTE:  "FAIR" INDICATES FEW OR NO CLOUDS BELOW 12,000 FEET WITH NO
SIGNIFICANT WEATHER AND/OR OBSTRUCTIONS TO VISIBILITY.

KSZ001>006-013>018-027>032-041>047-250700-
NORTHWEST KANSAS

CITY           SKY/WX    TMP DP  RH WIND       PRES   REMARKS
GOODLAND       CLOUDY    65  63  93 E9        30.16F
6HR MIN TEMP:  65; 6HR MAX TEMP:  88; 6HR PCP:  0.34;

HAYS           CLOUDY    72  59  64 NE10      30.02F
HILL CITY      CLOUDY    74  59  59 NE9       30.09F
6HR MIN TEMP:  73; 6HR MAX TEMP:  86;

RUSSELL        CLOUDY    71  65  81 NE9       30.00F
6HR MIN TEMP:  71; 6HR MAX TEMP:  87; 6HR PCP: TRACE;

$$

KSZ061>065-074>080-084>089-250700-
SOUTHWEST KANSAS

CITY           SKY/WX    TMP DP  RH WIND       PRES   REMARKS
DODGE CITY     CLOUDY    74  66  76 SE15      30.04F
6HR MIN TEMP:  74; 6HR MAX TEMP:  94; 6HR PCP:  0.04;

ELKHART          N/A     69  66  90 N3          N/A
GARDEN CITY    TSTM      67  65  93 NW22G37   30.16R FOG
6HR MIN TEMP:  67; 6HR MAX TEMP:  92; 6HR PCP:  0.07;

GREAT BEND     MOCLDY    75  63  64 E14       30.00F
LIBERAL        CLOUDY    70  63  78 N10       30.15R
PRATT          CLOUDY    78  69  73 NE7       29.98F
6HR MIN TEMP:  78; 6HR MAX TEMP:  93;

$$

KSZ066>073-081>083-090>101-250700-
SOUTHEAST KANSAS

CITY           SKY/WX    TMP DP  RH WIND       PRES   REMARKS
CHANUTE        CLOUDY    83  74  74 CALM      29.96S
6HR MIN TEMP:  83; 6HR MAX TEMP:  92;

COFFEYVILLE    CLOUDY    86  75  69 S7        29.95F HX  95
6HR MIN TEMP:  86; 6HR MAX TEMP:  99;

HUTCHINSON     CLOUDY    80  74  81 E7        29.99F
6HR MIN TEMP:  80; 6HR MAX TEMP:  96;

MEDICINE LODGE   N/A     86  63  45 SE6       29.95S
NEWTON         PTCLDY    79  75  89 E6        30.01F
PARSONS        CLOUDY    85  73  67 CALM      29.96F
6HR MIN TEMP:  83; 6HR MAX TEMP:  97; 6HR PCP: TRACE;

WICHITA INTL   CLOUDY    86  71  60 CALM      29.97F THUNDER
6HR MIN TEMP:  85; 6HR MAX TEMP:  98;

WICHITA JABRA  CLOUDY    81  76  84 CALM      29.98S
6HR MIN TEMP:  80; 6HR MAX TEMP:  94;

WICHITA MCCONL MOCLDY    84  73  69 VRB1      29.98S
WINFIELD       CLOUDY    84  73  69 S5        29.97S
6HR MIN TEMP:  84; 6HR MAX TEMP:  97;

$$

KSZ007>012-019>026-033>040-048>060-102>105-250700-
NORTHEAST KANSAS

CITY           SKY/WX    TMP DP  RH WIND       PRES   REMARKS
CONCORDIA      CLOUDY    70  63  78 NE5       30.04F
6HR MIN TEMP:  69; 6HR MAX TEMP:  80;

EMPORIA        PTCLDY    78  71  79 N8        30.00S
6HR MIN TEMP:  78; 6HR MAX TEMP:  93;

LAWRENCE       CLOUDY    76  71  85 NE5       29.98F
6HR MIN TEMP:  76; 6HR MAX TEMP:  88; 6HR PCP: TRACE;

MANHATTAN      PTCLDY    73  67  81 NE5       30.00F
6HR MIN TEMP:  73; 6HR MAX TEMP:  86; 6HR PCP: TRACE;

MARYSVILLE     CLEAR     66  63  88 N5        30.05S
OLATHE IND     MOCLDY    80  73  79 NE3       29.99S
6HR MIN TEMP:  80; 6HR MAX TEMP:  88;

OLATHE EXE     MOCLDY    78  71  79 E3        29.99S
6HR MIN TEMP:  78; 6HR MAX TEMP:  89;

SALINA         MOCLDY    79  67  66 NE6       30.01F THUNDER
6HR MIN TEMP:  79; 6HR MAX TEMP:  90;

TOPEKA BILLARD CLOUDY    78  69  73 E6        29.99F
6HR MIN TEMP:  77; 6HR MAX TEMP:  84;

TOPEKA FORBES  TSTM      76  73  91 W16G22    30.01R
6HR MIN TEMP:  76; 6HR MAX TEMP:  89; 6HR PCP:  0.10;

$$



USA.gov is the U.S. government's official web portal to all federal, state and local government web resources and services.